Zurück zum Katalog

DELTA 1 DEB

LostSSO
NORAD 13825·DEBRIS·🇺🇸 United States

Gestartet Mar 5, 1978 von Vandenberg Space Force Base

Loading…

Nächste Überflüge (nächste 24 Stunden)

TLE

VeraltetSource: Space-Track

Epoche: Jul 18, 2020, 04:09 UTC

1 13825U 78026FU  20200.17319329  .00000165  00000-0  82946-4 0  9996
2 13825  98.9326 286.1491 0137662 346.1215  13.6765 14.24487201929827

Verfolge DELTA 1 DEB in Echtzeit mit AllMySat

Download on the App Store